STARLINK-35821, 66372

Orbit data source: Space-Track

STARLINK-35821, 66372 is a payload satellite owned by SpaceX/Seattle (US) in LEO that was launched on Thu, 06 Nov 2025 UTC via an FALCON 9 launch vehicle from the Air Force Western Test Range (AFWTR). Payload-class satellites include a variety of spacecraft equipped with specific instruments for various scientific and technological missions. These include communications satellites like Starlink; space stations such as the ISS; scientific satellites like the Hubble; Earth observation satellites from companies like Planet Labs, Umbra, and HawkEye 360; GPS; miniature CubeSats for education and research; and military/defense satellites.

Loading next visibility...
Identifier
66372, 2025-254AA
Orbit
LEO
Country
Flag of USUS
Related business
Manufacturer
SpaceX/Seattle
Mission
Operational Commercial Communications
Bus & Motor
STARLINK V2MO, Unknown motor
Mass
575 kg wet, ~530 kg dry
Launch date (UTC)
2025-11-06 (7 months ago)
Launch vehicle
FALCON 9
Launch site
Air Force Western Test Range (AFWTR)
Object type
Payload
Rocket body
Debris
Shape & HBR
Box + 2 Pan, 17.7 m
Radar Cross Section
36.964 m², Large (>1 m²)

Expand to show TLE details & history
Last TLE update: 23 hours ago

TLE from 23 hours ago
0 STARLINK-35821
1 66372U 25254AA  26170.87616253  .00014710  00000-0  50767-3 0  9997
2 66372  53.1585 115.4377 0001639 106.2844 253.8338 15.30207323 34651
Epoch: 2026-06-19T21:01Z
TLE epoch observation values (Epoch: 2026-06-19T21:01:40.442Z)
Latitude
0.00004°
Longitude
-108.07963°
Altitude
476.406 km
Speed
7.629 km/s
True Right ascension
07h 41m 45s
True Declination
0° 00' 00"
Sunlit
Object was in daylight at epoch
Visualization orbit readout
Latitude
Unknown
Longitude
Unknown
Altitude
Unknown
Speed
Unknown
Apparent Right ascension
Unknown
Apparent Declination
Unknown
Sunlit
N/A
Visualization observer readout
Local Sidereal Time
07:16:34
Azimuth
Unknown
Elevation
Unknown
Doppler factor
Unknown
Orbital elements
Apogee altitude
476.573 km
Perigee altitude
474.327 km
Semi-major axis
6,853.587 km
Eccentricity
0.00016
Inclination
53.1585°
RAAN
115.4377°
Arg. of periapsis
106.2844°
True anomaly
253.81576°
Mean anomaly
253.8338°
Eccentric anomaly
253.82478°
Mean motion
3.82531 °/min
Orbital period
94.11 mins
BSTAR
0.00050767
Loading maneuver chart data...
Computing Atmospheric mass density...
Loading historical data...
Loading historical data...
Loading historical data...
Loading historical data...
Loading historical data...
Loading historical data...
Loading historical data...

Documentation

Showing up to 5 results
|